Flag for Cote d'Ivoire (Ivory Coast) Weather past 2 weeks in Abidjan, Cote d'Ivoire (Ivory Coast)

Now
77 °F

Passing clouds.


Feels Like: 78 °F
Forecast: N/A
Wind: 7 mph from Southwest

Location: Abidjan Airport

Current Time: Oct 1, 2014 at 8:01:13 PM

Latest Report: Oct 1, 2014 at 7:30 PM


Visibility: N/A

Pressure: 29.89 "Hg

Humidity: 89%

Dew point: 73 °F

Location of AbidjanLocation

Historic Weather in Abidjan — Graph

°F

Abidjan temperature yesterday

Maximum temperature yesterday: 82 °F (at 10:30 AM)
Minimum temperature yesterday: 73 °F (at 4:30 PM)
Average temperature yesterday: 78 °F

Past Weeks' High & Low Weather Summary

 TemperatureHumidityPressure
High84 °F (Sep 22, 12:30 PM)100% (Sep 16, 11:00 PM)29.98 "Hg (Sep 16, 11:00 PM)
Low70 °F (Sep 20, 2:00 AM)66% (Sep 27, 2:30 PM)29.83 "Hg (Sep 17, 3:00 PM)
Average78 °F90%29.90 "Hg
* Reported Sep 16 7:00 PM — Oct 1 7:00 PM, Abidjan, Weather by CustomWeather, © 2014

Note: Actual official high and low records may vary slightly from our data, if they occured in-between our weather recording intervals... More about our weather records

Advertising

Abidjan weather history for previous 24 hours

 ConditionsComfort  
Time TempWeatherWind HumidityBarometerVisibility
7:00 PM
Oct 1
77 °FPassing clouds.8 mph89%29.89 "HgN/A
6:30 PM77 °FPassing clouds.9 mph89%29.86 "HgN/A
6:00 PM77 °FScattered clouds.9 mph89%29.86 "HgN/A
5:30 PM79 °FScattered clouds.10 mph84%29.83 "HgN/A
5:00 PM79 °FScattered clouds.12 mph84%29.83 "HgN/A
4:30 PM79 °FScattered clouds.12 mph84%29.83 "HgN/A
4:00 PM81 °FScattered clouds.14 mph79%29.83 "HgN/A
3:30 PM81 °FScattered clouds.15 mph79%29.83 "HgN/A
3:00 PM81 °FScattered clouds.13 mph79%29.83 "HgN/A
2:30 PM81 °FScattered clouds.12 mph79%29.86 "HgN/A
2:00 PM81 °FBroken clouds.13 mph79%29.86 "HgN/A
1:30 PM82 °FBroken clouds.12 mph70%29.86 "HgN/A
1:00 PM82 °FBroken clouds.12 mph70%29.89 "HgN/A
12:30 PM82 °FScattered clouds.13 mph70%29.89 "HgN/A
12:00 PM82 °FBroken clouds.10 mph79%29.92 "Hg5 mi
11:30 AM81 °FBroken clouds.9 mph79%29.92 "Hg5 mi
11:00 AM81 °FBroken clouds.6 mph79%29.92 "Hg5 mi
10:30 AM81 °FPartly sunny.6 mph79%29.95 "Hg4 mi
10:00 AM79 °FPartly sunny.6 mph84%29.95 "Hg4 mi
9:30 AM79 °FPartly sunny.6 mph84%29.95 "Hg4 mi
9:00 AM77 °FPartly sunny.6 mph89%29.95 "Hg5 mi
8:30 AM75 °FPartly sunny.6 mph89%29.95 "Hg5 mi
8:00 AM75 °FPartly sunny.6 mph94%29.92 "Hg5 mi
7:30 AM73 °FBroken clouds.7 mph100%29.92 "Hg5 mi
7:00 AM73 °FBroken clouds.6 mph100%29.89 "Hg5 mi
6:30 AM73 °FBroken clouds.5 mph100%29.89 "Hg5 mi
6:00 AM73 °FPartly cloudy.6 mph100%29.89 "Hg5 mi
5:30 AM73 °FRain. Partly cloudy.3 mph100%29.86 "Hg2 mi
5:00 AM75 °FRain. Partly cloudy.7 mph94%29.86 "Hg2 mi
4:30 AM75 °FLight rain. Partly cloudy.8 mph100%29.86 "Hg4 mi
4:00 AM75 °FLight rain. Partly cloudy.7 mph100%29.83 "Hg4 mi
3:30 AM75 °FPartly cloudy.6 mph100%29.83 "Hg4 mi
3:00 AM75 °FPartly cloudy.10 mph100%29.83 "Hg4 mi
2:30 AM75 °FLight rain. Passing clouds.12 mph100%29.83 "Hg4 mi
2:00 AM77 °FPartly cloudy.7 mph94%29.86 "Hg5 mi
1:30 AM77 °FPartly cloudy.7 mph94%29.86 "Hg5 mi
1:00 AM77 °FPartly cloudy.8 mph94%29.86 "Hg5 mi
12:30 AM77 °FPartly cloudy.9 mph94%29.86 "Hg5 mi
12:00 AM77 °FPartly cloudy.9 mph94%29.86 "Hg5 mi
11:30 PM
Sep 30
77 °FPartly cloudy.10 mph94%29.86 "Hg5 mi
11:00 PM77 °FPassing clouds.13 mph94%29.86 "Hg5 mi
10:30 PM77 °FPartly cloudy.13 mph89%29.86 "Hg5 mi
10:00 PM77 °FPartly cloudy.17 mph89%29.86 "Hg5 mi
9:30 PM77 °FPassing clouds.14 mph94%29.86 "Hg5 mi
9:00 PM75 °FThunderstorms. Passing clouds.13 mph94%29.86 "Hg5 mi
8:30 PM75 °FThunderstorms. Passing clouds.17 mph94%29.86 "HgN/A
8:00 PM75 °FThunderstorms. Passing clouds.16 mph94%29.86 "HgN/A
Weather by CustomWeather, © 2014

See weather overviewHow to use our weather pages